| time (UTC) | temp F | wind direction | speed MPH | gust MPH | rain 1hr in | rain 24hr in | rain mn in | humidity % | barometer mb |
| 20260509034511 | 42 | 157 | 1.0 | 2.0 | 0.00 | 0.03 | 0.02 | 82 | 1012.0 |
| 20260509033011 | 41 | 45 | 0.0 | 1.0 | 0.00 | 0.03 | 0.02 | 83 | 1012.0 |
| 20260509031514 | 41 | 45 | 0.0 | 1.0 | 0.00 | 0.03 | 0.02 | 83 | 1012.0 |
| 20260509030011 | 42 | 45 | 0.0 | 0.0 | 0.00 | 0.06 | 0.02 | 82 | 1012.1 |
| 20260509024530 | 42 | 45 | 0.0 | 0.0 | 0.00 | 0.06 | 0.02 | 81 | 1012.2 |
| 20260509023047 | 42 | 45 | 0.0 | 0.0 | 0.00 | 0.06 | 0.02 | 81 | 1012.1 |
| 20260509021544 | 43 | 45 | 0.0 | 0.0 | 0.00 | 0.06 | 0.02 | 79 | 1012.0 |
| 20260509020015 | 44 | 45 | 0.0 | 0.0 | 0.00 | 0.07 | 0.02 | 78 | 1012.1 |
| 20260509014528 | 45 | 45 | 0.0 | 0.0 | 0.00 | 0.07 | 0.02 | 76 | 1012.1 |
| 20260509013024 | 46 | 45 | 0.0 | 0.0 | 0.00 | 0.07 | 0.02 | 75 | 1012.1 |
| 20260509011545 | 47 | 45 | 0.0 | 0.0 | 0.00 | 0.07 | 0.02 | 73 | 1012.1 |
| 20260509010033 | 48 | 45 | 0.0 | 0.0 | 0.00 | 0.07 | 0.02 | 70 | 1012.0 |
| 20260509004523 | 49 | 45 | 0.0 | 0.0 | 0.00 | 0.07 | 0.02 | 67 | 1011.8 |
| 20260509003025 | 50 | 45 | 0.0 | 0.0 | 0.00 | 0.07 | 0.02 | 65 | 1011.4 |
| 20260509001520 | 51 | 173 | 0.0 | 2.0 | 0.00 | 0.07 | 0.02 | 63 | 1011.4 |
| 20260509000024 | 52 | 11 | 0.0 | 2.0 | 0.00 | 0.07 | 0.02 | 58 | 1011.3 |
| 20260508234545 | 53 | 5 | 0.0 | 1.0 | 0.00 | 0.07 | 0.02 | 56 | 1011.3 |
| 20260508233108 | 53 | 5 | 0.0 | 2.0 | 0.00 | 0.07 | 0.02 | 55 | 1011.3 |
| 20260508231556 | 54 | 5 | 0.0 | 1.0 | 0.00 | 0.07 | 0.02 | 58 | 1011.2 |
| 20260508230059 | 53 | 13 | 0.0 | 1.0 | 0.00 | 0.07 | 0.02 | 52 | 1011.3 |
| 20260508224520 | 54 | 9 | 0.0 | 1.0 | 0.00 | 0.07 | 0.02 | 52 | 1011.3 |
| 20260508223033 | 54 | 9 | 0.0 | 2.0 | 0.00 | 0.07 | 0.02 | 50 | 1011.3 |
| 20260508221533 | 54 | 19 | 0.0 | 3.0 | 0.00 | 0.07 | 0.02 | 48 | 1011.3 |
| 20260508220022 | 54 | 101 | 0.0 | 3.0 | 0.00 | 0.07 | 0.02 | 49 | 1011.4 |
| 20260508214525 | 54 | 190 | 0.0 | 2.0 | 0.00 | 0.07 | 0.02 | 49 | 1011.4 |
| 20260508213022 | 54 | 143 | 0.0 | 3.0 | 0.00 | 0.07 | 0.02 | 50 | 1011.5 |
| 20260508211517 | 54 | 5 | 0.0 | 2.0 | 0.00 | 0.07 | 0.02 | 54 | 1011.6 |
| 20260508210040 | 55 | 260 | 2.0 | 5.0 | 0.00 | 0.07 | 0.02 | 52 | 1011.7 |
| 20260508204542 | 55 | 186 | 1.0 | 5.0 | 0.00 | 0.07 | 0.02 | 55 | 1011.7 |
| 20260508203040 | 55 | 34 | 1.0 | 3.0 | 0.00 | 0.07 | 0.02 | 54 | 1011.7 |
| 20260508201600 | 55 | 258 | 1.0 | 2.0 | 0.00 | 0.07 | 0.02 | 56 | 1012.0 |
| 20260508201502 | 55 | 258 | 1.0 | 2.0 | 0.00 | 0.07 | 0.02 | 54 | 1012.0 |
| 20260508200007 | 54 | 30 | 3.0 | 8.0 | 0.00 | 0.07 | 0.02 | 60 | 1012.2 |
| 20260508194606 | 54 | 233 | 1.0 | 4.0 | 0.00 | 0.07 | 0.02 | 64 | 1012.4 |
| 20260508193120 | 53 | 343 | 1.0 | 3.0 | 0.00 | 0.07 | 0.02 | 53 | 1012.5 |
| 20260508193001 | 53 | 261 | 0.0 | 3.0 | 0.00 | 0.07 | 0.02 | 51 | 1012.5 |
| 20260508191547 | 54 | 30 | 1.0 | 6.0 | 0.00 | 0.07 | 0.02 | 56 | 1012.6 |
| 20260508190010 | 54 | 263 | 1.0 | 4.0 | 0.00 | 0.07 | 0.02 | 50 | 1012.7 |
| 20260508184514 | 55 | 277 | 1.0 | 4.0 | 0.00 | 0.07 | 0.02 | 49 | 1012.8 |
| 20260508183100 | 54 | 331 | 1.0 | 5.0 | 0.00 | 0.07 | 0.02 | 55 | 1012.7 |
| 20260508181554 | 55 | 259 | 1.0 | 7.0 | 0.00 | 0.07 | 0.02 | 50 | 1012.9 |
| 20260508180106 | 55 | 263 | 1.0 | 4.0 | 0.00 | 0.07 | 0.02 | 54 | 1013.0 |
| 20260508180002 | 55 | 257 | 1.0 | 4.0 | 0.00 | 0.07 | 0.02 | 56 | 1013.0 |
| 20260508174522 | 54 | 264 | 0.0 | 6.0 | 0.00 | 0.07 | 0.02 | 57 | 1013.0 |
| 20260508173025 | 53 | 259 | 0.0 | 3.0 | 0.00 | 0.07 | 0.02 | 62 | 1013.1 |
| 20260508171548 | 52 | 263 | 1.0 | 6.0 | 0.00 | 0.07 | 0.02 | 63 | 1013.2 |
| 20260508170033 | 51 | 245 | 1.0 | 7.0 | 0.00 | 0.07 | 0.02 | 69 | 1013.5 |
| 20260508164536 | 50 | 294 | 2.0 | 5.0 | 0.00 | 0.07 | 0.02 | 67 | 1013.6 |
| 20260508163103 | 49 | 279 | 1.0 | 6.0 | 0.00 | 0.07 | 0.02 | 68 | 1013.7 |
| 20260508161532 | 49 | 271 | 1.0 | 3.0 | 0.00 | 0.07 | 0.02 | 68 | 1013.9 |
| 20260508160021 | 49 | 268 | 1.0 | 4.0 | 0.00 | 0.07 | 0.02 | 69 | 1014.0 |
| 20260508154522 | 48 | 259 | 1.0 | 4.0 | 0.00 | 0.07 | 0.02 | 69 | 1014.2 |
| 20260508153038 | 47 | 235 | 0.0 | 4.0 | 0.00 | 0.07 | 0.02 | 78 | 1014.0 |
| 20260508151511 | 46 | 243 | 1.0 | 4.0 | 0.00 | 0.07 | 0.02 | 80 | 1014.0 |
| 20260508150035 | 46 | 265 | 2.0 | 4.0 | 0.00 | 0.07 | 0.02 | 81 | 1014.1 |
| 20260508144537 | 45 | 254 | 1.0 | 3.0 | 0.01 | 0.07 | 0.02 | 85 | 1014.1 |
| 20260508143101 | 44 | 271 | 2.0 | 6.0 | 0.01 | 0.07 | 0.02 | 85 | 1014.0 |
| 20260508141540 | 43 | 249 | 0.0 | 5.0 | 0.01 | 0.07 | 0.02 | 85 | 1013.9 |
| 20260508140037 | 44 | 253 | 1.0 | 4.0 | 0.01 | 0.07 | 0.02 | 88 | 1013.7 |
| 20260508134539 | 43 | 209 | 2.0 | 3.0 | 0.00 | 0.06 | 0.01 | 89 | 1013.8 |
| 20260508133027 | 41 | 34 | 0.0 | 4.0 | 0.00 | 0.06 | 0.01 | 89 | 1014.1 |
| 20260508131511 | 42 | 267 | 0.0 | 2.0 | 0.00 | 0.06 | 0.01 | 89 | 1014.2 |
| 20260508130039 | 41 | 246 | 0.0 | 3.0 | 0.00 | 0.06 | 0.01 | 89 | 1014.0 |
| 20260508124529 | 41 | 234 | 1.0 | 4.0 | 0.00 | 0.06 | 0.01 | 89 | 1014.0 |
| 20260508123023 | 41 | 247 | 1.0 | 5.0 | 0.00 | 0.06 | 0.01 | 89 | 1013.8 |
| 20260508121542 | 41 | 263 | 0.0 | 2.0 | 0.00 | 0.06 | 0.01 | 90 | 1013.8 |
| 20260508120033 | 41 | 273 | 0.0 | 3.0 | 0.00 | 0.06 | 0.01 | 91 | 1013.7 |
| 20260508114518 | 41 | 272 | 0.0 | 2.0 | 0.00 | 0.06 | 0.01 | 92 | 1013.4 |
| 20260508113045 | 41 | 267 | 0.0 | 1.0 | 0.00 | 0.06 | 0.01 | 93 | 1013.0 |
| 20260508111511 | 41 | 266 | 0.0 | 2.0 | 0.00 | 0.06 | 0.01 | 93 | 1012.8 |
| 20260508110033 | 41 | 268 | 0.0 | 1.0 | 0.00 | 0.06 | 0.01 | 93 | 1012.5 |
| 20260508104520 | 40 | 268 | 0.0 | 0.0 | 0.00 | 0.06 | 0.01 | 93 | 1012.3 |
| 20260508103045 | 40 | 268 | 0.0 | 0.0 | 0.00 | 0.06 | 0.01 | 93 | 1012.3 |
| 20260508101518 | 40 | 268 | 0.0 | 0.0 | 0.00 | 0.06 | 0.01 | 93 | 1012.3 |
| 20260508100118 | 40 | 268 | 0.0 | 0.0 | 0.00 | 0.07 | 0.01 | 93 | 1012.4 |
| 20260508094553 | 40 | 268 | 0.0 | 1.0 | 0.00 | 0.07 | 0.01 | 93 | 1012.5 |
| 20260508093040 | 40 | 268 | 0.0 | 1.0 | 0.00 | 0.07 | 0.01 | 93 | 1012.5 |
| 20260508091546 | 40 | 268 | 0.0 | 2.0 | 0.00 | 0.07 | 0.01 | 93 | 1012.8 |
| 20260508090040 | 39 | 268 | 0.0 | 2.0 | 0.00 | 0.07 | 0.01 | 93 | 1012.9 |
| 20260508084528 | 39 | 268 | 0.0 | 2.0 | 0.00 | 0.07 | 0.01 | 93 | 1012.9 |
| 20260508083043 | 39 | 269 | 0.0 | 1.0 | 0.00 | 0.07 | 0.01 | 93 | 1012.8 |
| 20260508081512 | 39 | 269 | 0.0 | 1.0 | 0.00 | 0.07 | 0.01 | 92 | 1012.9 |
| 20260508080004 | 39 | 269 | 0.0 | 2.0 | 0.00 | 0.07 | 0.01 | 92 | 1012.8 |
| 20260508074504 | 39 | 269 | 1.0 | 2.0 | 0.00 | 0.07 | 0.01 | 92 | 1012.9 |
| 20260508073007 | 39 | 274 | 0.0 | 3.0 | 0.00 | 0.07 | 0.01 | 92 | 1012.8 |
| 20260508071536 | 39 | 265 | 0.0 | 1.0 | 0.00 | 0.07 | 0.01 | 92 | 1012.6 |
| 20260508070020 | 39 | 275 | 0.0 | 2.0 | 0.00 | 0.07 | 0.01 | 92 | 1012.9 |
| 20260508064510 | 39 | 275 | 0.0 | 1.0 | 0.00 | 0.07 | 0.01 | 92 | 1012.8 |
| 20260508063036 | 40 | 275 | 0.0 | 0.0 | 0.00 | 0.07 | 0.01 | 92 | 1012.6 |
| 20260508061522 | 40 | 275 | 0.0 | 1.0 | 0.00 | 0.07 | 0.01 | 92 | 1012.7 |
| 20260508060025 | 40 | 275 | 0.0 | 1.0 | 0.01 | 0.07 | 0.01 | 92 | 1012.8 |
| 20260508054615 | 41 | 255 | 0.0 | 2.0 | 0.01 | 0.07 | 0.01 | 92 | 1013.0 |
| 20260508053100 | 41 | 255 | 0.0 | 2.0 | 0.01 | 0.07 | 0.01 | 92 | 1013.1 |
| 20260508053008 | 41 | 255 | 0.0 | 2.0 | 0.01 | 0.07 | 0.01 | 92 | 1013.2 |
| 20260508051553 | 42 | 254 | 1.0 | 2.0 | 0.01 | 0.07 | 0.01 | 92 | 1013.3 |
| 20260508050058 | 42 | 254 | 1.0 | 2.0 | 0.00 | 0.06 | 0.00 | 92 | 1013.1 |
| 20260508044504 | 42 | 246 | 1.0 | 2.0 | 0.00 | 0.06 | 0.00 | 91 | 1013.0 |
| 20260508043059 | 42 | 238 | 0.0 | 2.0 | 0.00 | 0.06 | 0.00 | 91 | 1013.0 |
| 20260508041552 | 42 | 238 | 0.0 | 1.0 | 0.01 | 0.06 | 0.00 | 91 | 1012.9 |
| 20260508040045 | 42 | 238 | 0.0 | 2.0 | 0.01 | 0.06 | 0.06 | 90 | 1012.8 |